BREEZE-M DEB (TANK), 32480

Orbit data source: Space-Track

BREEZE-M DEB (TANK), 32480 is space debris in HEO originally from a launch on Mon, 28 Jan 2008 UTC launched from the Tyuratam Missile And Space Complex (TTMTR). Debris objects in space refer to the collection of defunct objects orbiting the Earth. Examples of debris include non-operational satellites, rocket bodies, and fragments generated from explosions, collisions, or faulty payload assembly.

Loading next visibility...
Identifier
32480, 2008-003C
Orbit
HEO
Country
Flag of CISCIS
Related business
Manufacturer
Khrunichev
Mission
Spacecraft
Bus & Motor
BRIZ TANK, Unknown motor
Mass
~1,000 kg wet, 1,000 kg dry
Launch date (UTC)
2008-01-28 (18 years ago)
Launch vehicle
Unknown
Launch site
Tyuratam Missile And Space Complex (TTMTR)
Object type
Payload
Rocket body
Debris
Shape & HBR
Torus, 2.0 m
Radar Cross Section
8.218 m², Large (>1 m²)

Expand to show TLE details & history
Last TLE update: 19 hours ago

TLE from 19 hours ago
0 BREEZE-M DEB (TANK)
1 32480U 08003C   26171.12895617  .00000072  00000-0  11677-2 0  9997
2 32480  45.0281 130.9947 7038459  63.6072 350.4725  2.30096966154481
Epoch: 2026-06-20T03:05Z
TLE epoch observation values (Epoch: 2026-06-20T03:05:41.813Z)
Latitude
0.00012°
Longitude
176.16797°
Altitude
2,946.262 km
Speed
8.31 km/s
True Right ascension
08h 43m 45s
True Declination
0° 00' 00"
Sunlit
Object was in daylight at epoch
Visualization orbit readout
Latitude
Unknown
Longitude
Unknown
Altitude
Unknown
Speed
Unknown
Apparent Right ascension
Unknown
Apparent Declination
Unknown
Sunlit
N/A
Visualization observer readout
Local Sidereal Time
08:32:46
Azimuth
Unknown
Elevation
Unknown
Doppler factor
Unknown
Orbital elements
Apogee altitude
34,918.48 km
Perigee altitude
799.837 km
Semi-major axis
24,237.295 km
Eccentricity
0.70385
Inclination
45.0281°
RAAN
130.9947°
Arg. of periapsis
63.6072°
True anomaly
295.99915°
Mean anomaly
350.4725°
Eccentric anomaly
330.79582°
Mean motion
0.5752 °/min
Orbital period
625.87 mins
BSTAR
0.0011677
Loading maneuver chart data...
Computing Atmospheric mass density...
Loading historical data...
Loading historical data...
Loading historical data...
Loading historical data...
Loading historical data...
Loading historical data...
Loading historical data...
Other satellites on launch #3 in the year 2008 (2008-01-28 UTC)

Documentation

Showing up to 5 results
|